Weather History for Cecil Field, FL

Change the Weather History Date:

Monday, October 28, 2013

  Actual Average (KJAX) Record (KJAX)
Temperature  
Mean Temperature 60 °F 67 °F  
Max Temperature 77 °F 78 °F 89 °F (2010)
Min Temperature 44 °F 56 °F 37 °F (2008)
Degree Days  
Heating Degree Days 4 2  
Month to date heating degree days 20  
Since 1 July heating degree days 20  
Cooling Degree Days 0 4  
Month to date cooling degree days 187  
Year to date cooling degree days 2573  
Growing Degree Days 10 (Base 50)    
Moisture  
Dew Point -    
Average Humidity    
Maximum Humidity    
Minimum Humidity    
Precipitation  
Precipitation 0.00 in 0.08 in 1.93 in (1985)
Month to date precipitation 3.71  
Year to date precipitation 47.26  
Snow  
Snow 0.00 in 0.00 in 0.00 in (2002)
Month to date snowfall 0.0  
Since 1 July snowfall 0.0  
Since 1 September snowfall 0.0  
Snow Depth -    
Sea Level Pressure  
Sea Level Pressure 30.19 in    
Wind  
Wind Speed 1 mph (NE)    
Max Wind Speed 8 mph    
Max Gust Speed -    
Visibility 8 miles    
Events      
T = Trace of Precipitation, MM = Missing Value Source: NWS Daily Summary

Daily Weather History Graph

Daily Weather History Graph

Search for Another Location

Airport:

Trip Planner

Search our weather history database for the weather conditions in past years. The results will help you decide how hot, cold, wet, or windy it might be!

Date:

Astronomy

Oct. 28, 2013 Rise Set
Actual Time 7:38 AM EDT 6:43 PM EDT
Civil Twilight 7:14 AM EDT 7:07 PM EDT
Nautical Twilight 6:45 AM EDT 7:36 PM EDT
Astronomical Twilight 6:17 AM EDT 8:04 PM EDT
Moon 1:55 AM EDT 3:02 PM EDT
Length of Visible Light 11h 53m
Length of Day
11h 04m
Waning Crescent, 34% of the Moon is Illuminated
Oct 28
Waning Crescent
Nov 3
New
Nov 10
First Quarter
Nov 17
Full
Nov 25
Last Quarter

Hourly Weather History & Observations

Time (EDT) Temp. Dew Point Humidity Pressure Visibility Wind Dir Wind Speed Gust Speed Precip Events Conditions
12:15 AM 46.4 °F - N/A% 30.17 in 3.0 mi Calm Calm - N/A   Clear
12:35 AM 46.4 °F - N/A% 30.17 in 6.0 mi Calm Calm - N/A   Haze
12:55 AM 48.2 °F - N/A% 30.17 in 7.0 mi Calm Calm - N/A   Clear
1:15 AM 48.2 °F - N/A% 30.16 in 7.0 mi Calm Calm - N/A   Clear
1:35 AM 46.4 °F - N/A% 30.15 in 5.0 mi Calm Calm - N/A   Haze
1:55 AM 48.2 °F - N/A% 30.15 in 9.0 mi Calm Calm - N/A   Clear
2:15 AM 46.4 °F - N/A% 30.15 in 4.0 mi Calm Calm - N/A   Haze
2:35 AM 46.4 °F - N/A% 30.15 in 6.0 mi Calm Calm - N/A   Haze
2:55 AM 46.4 °F - N/A% 30.15 in 4.0 mi Calm Calm - N/A   Haze
3:15 AM 48.2 °F - N/A% 30.14 in 5.0 mi Calm Calm - N/A   Haze
3:35 AM 48.2 °F - N/A% 30.15 in 4.0 mi Calm Calm - N/A   Haze
3:55 AM 48.2 °F - N/A% 30.14 in 4.0 mi Calm Calm - N/A   Haze
4:15 AM 48.2 °F - N/A% 30.14 in 6.0 mi Calm Calm - N/A   Haze
4:35 AM 48.2 °F - N/A% 30.15 in 4.0 mi Calm Calm - N/A   Haze
4:55 AM 48.2 °F - N/A% 30.15 in 9.0 mi Calm Calm - N/A   Clear
5:15 AM 48.2 °F - N/A% 30.15 in 7.0 mi Calm Calm - N/A   Clear
5:35 AM 46.4 °F - N/A% 30.15 in 3.0 mi Calm Calm - N/A   Clear
5:55 AM 48.2 °F - N/A% 30.16 in 8.0 mi Calm Calm - N/A   Clear
6:15 AM 46.4 °F - N/A% 30.16 in 6.0 mi Calm Calm - N/A   Haze
6:35 AM 46.4 °F - N/A% 30.17 in 5.0 mi Calm Calm - N/A   Haze
6:50 AM 46.4 °F - N/A% 30.17 in 7.0 mi Calm Calm - N/A   Clear
7:50 AM 44.6 °F - N/A% 30.19 in 10.0 mi Calm Calm - N/A   Clear
8:50 AM 50.0 °F - N/A% 30.22 in 10.0 mi Calm Calm - N/A   Clear
9:50 AM 62.6 °F - N/A% 30.23 in 10.0 mi Calm Calm - N/A   Clear
10:50 AM 69.8 °F - N/A% 30.24 in 10.0 mi North 5.8 mph - N/A   Clear
11:50 AM 73.4 °F - N/A% 30.24 in 10.0 mi NE 4.6 mph - N/A   Clear
12:50 PM 73.4 °F - N/A% 30.23 in 10.0 mi NE 4.6 mph - N/A   Clear
1:50 PM 77.0 °F - N/A% 30.20 in 10.0 mi Calm Calm - N/A   Clear
2:50 PM 77.0 °F - N/A% 30.18 in 10.0 mi Variable 5.8 mph - N/A   Partly Cloudy
3:50 PM 77.0 °F - N/A% 30.17 in 10.0 mi Calm Calm - N/A   Partly Cloudy
4:50 PM 77.0 °F - N/A% 30.17 in 10.0 mi NE 8.1 mph - N/A   Partly Cloudy
5:50 PM 75.2 °F - N/A% 30.18 in 10.0 mi NE 4.6 mph - N/A   Clear
6:50 PM 68.0 °F - N/A% 30.19 in 10.0 mi NE 5.8 mph - N/A   Clear
7:50 PM 64.4 °F - N/A% 30.20 in 10.0 mi Calm Calm - N/A   Clear
8:15 PM 60.8 °F - N/A% 30.21 in 10.0 mi Calm Calm - N/A   Clear
8:35 PM 59.0 °F - N/A% 30.22 in 10.0 mi Calm Calm - N/A   Clear
8:55 PM 57.2 °F - N/A% 30.22 in 10.0 mi Calm Calm - N/A   Clear
9:15 PM 57.2 °F - N/A% 30.23 in 10.0 mi Calm Calm - N/A   Clear
9:35 PM 55.4 °F - N/A% 30.23 in 10.0 mi Calm Calm - N/A   Clear
9:55 PM 55.4 °F - N/A% 30.24 in 7.0 mi Calm Calm - N/A   Clear
10:15 PM 55.4 °F - N/A% 30.24 in 5.0 mi Calm Calm - N/A   Haze
10:35 PM 55.4 °F - N/A% 30.24 in 7.0 mi Calm Calm - N/A   Clear
10:55 PM 53.6 °F - N/A% 30.25 in 8.0 mi Calm Calm - N/A   Clear
11:15 PM 55.4 °F - N/A% 30.24 in 5.0 mi Calm Calm - N/A   Haze
11:35 PM 53.6 °F - N/A% 30.24 in 9.0 mi Calm Calm - N/A   Clear
11:55 PM 53.6 °F - N/A% 30.24 in 9.0 mi Calm Calm - N/A   Clear